LOT398 EPWA-EDDH

Flight info

Callsign LOT398
Flight time N/A
Altitude 40000
Route LOLSI T174 INDIG DCT ALUKA DCT VIBIS L619 BUMIL M748 RARUP RARUP6A
Aircraft E195/M-SDE3GILORVW/S

Departure

Time 2026-04-30 19:03
Airport Warsaw Chopin Airport (EPWA)

Arrival

Time N/A
Airport Hamburg Helmut Schmidt Airport (EDDH)
Time Latitude Longitude Altitude Speed Heading
2026-04-30 18:42 52.15758 20.98011 337 ft 0 kts 114°
2026-04-30 19:00 52.15756 20.98017 333 ft 3 kts 114°
2026-04-30 19:00 52.15742 20.98074 337 ft 7 kts 103°
2026-04-30 19:00 52.15836 20.98178 337 ft 12 kts 24°
2026-04-30 19:01 52.15997 20.98297 335 ft 10 kts 24°
2026-04-30 19:01 52.16062 20.98345 334 ft 12 kts 24°
2026-04-30 19:02 52.16201 20.98046 335 ft 51 kts 295°
2026-04-30 19:02 52.16841 20.95777 360 ft 161 kts 295°
2026-04-30 19:03 52.17773 20.92085 1507 ft 177 kts 286°
2026-04-30 19:03 52.17980 20.87691 2221 ft 212 kts 271°
2026-04-30 19:04 52.18085 20.82825 3393 ft 227 kts 281°
2026-04-30 19:04 52.18331 20.77394 4269 ft 255 kts 273°
2026-04-30 19:05 52.18301 20.71505 5500 ft 264 kts 274°
2026-04-30 19:05 52.18287 20.65438 6673 ft 271 kts 274°
2026-04-30 19:06 52.18267 20.59208 7686 ft 279 kts 275°
2026-04-30 19:06 52.18253 20.56024 8176 ft 283 kts 275°
2026-04-30 19:06 52.18222 20.49573 9198 ft 290 kts 275°
2026-04-30 19:07 52.18188 20.42903 10183 ft 303 kts 275°
2026-04-30 19:07 52.18173 20.39384 10408 ft 318 kts 274°
2026-04-30 19:08 52.18122 20.32069 11410 ft 326 kts 274°
2026-04-30 19:08 52.18072 20.24596 12454 ft 333 kts 275°
2026-04-30 19:08 52.18044 20.20855 12971 ft 336 kts 275°
2026-04-30 19:09 52.17985 20.13162 14013 ft 343 kts 275°
2026-04-30 19:09 52.17954 20.09254 14494 ft 347 kts 275°
2026-04-30 19:09 52.17921 20.05308 14950 ft 350 kts 275°
2026-04-30 19:10 52.17847 19.97318 15881 ft 356 kts 275°
2026-04-30 19:10 52.17760 19.89170 16814 ft 363 kts 274°
2026-04-30 19:11 52.17532 19.85037 17279 ft 370 kts 267°
2026-04-30 19:11 52.16829 19.76730 18235 ft 377 kts 267°
2026-04-30 19:11 52.16452 19.72498 18717 ft 380 kts 267°
2026-04-30 19:12 52.16064 19.68221 19141 ft 383 kts 267°
2026-04-30 19:12 52.15676 19.63909 19571 ft 386 kts 268°
2026-04-30 19:12 52.15281 19.59562 19998 ft 390 kts 268°
2026-04-30 19:13 52.14478 19.50755 20851 ft 397 kts 268°
2026-04-30 19:13 52.13656 19.41806 21652 ft 403 kts 268°
2026-04-30 19:13 52.13240 19.37278 22048 ft 406 kts 268°
2026-04-30 19:14 52.12819 19.32774 22407 ft 410 kts 269°
2026-04-30 19:14 52.12391 19.28173 22787 ft 413 kts 269°
2026-04-30 19:14 52.11954 19.23535 23167 ft 416 kts 269°
2026-04-30 19:14 52.11515 19.18859 23547 ft 419 kts 269°
2026-04-30 19:15 52.11068 19.14149 23921 ft 422 kts 269°
2026-04-30 19:15 52.10164 19.04642 24580 ft 428 kts 269°
2026-04-30 19:15 52.09703 18.99837 24901 ft 431 kts 269°
2026-04-30 19:16 52.09239 18.95001 25211 ft 433 kts 269°
2026-04-30 19:16 52.08767 18.90150 25536 ft 436 kts 268°
2026-04-30 19:16 52.07819 18.80419 26136 ft 441 kts 269°
2026-04-30 19:17 52.07337 18.75476 26421 ft 444 kts 268°
2026-04-30 19:17 52.06352 18.65504 26960 ft 449 kts 268°
2026-04-30 19:17 52.05851 18.60468 27237 ft 452 kts 268°
2026-04-30 19:18 52.05010 18.52063 27669 ft 456 kts 268°
2026-04-30 19:18 52.04331 18.45314 28020 ft 459 kts 268°
2026-04-30 19:18 52.03815 18.40187 28258 ft 461 kts 268°
2026-04-30 19:19 52.03290 18.35039 28536 ft 463 kts 268°
2026-04-30 19:19 52.02763 18.29877 28792 ft 465 kts 268°
2026-04-30 19:19 52.01693 18.19456 29306 ft 470 kts 268°
2026-04-30 19:20 52.01148 18.14213 29550 ft 472 kts 268°
2026-04-30 19:20 52.00604 18.08952 29806 ft 474 kts 268°
2026-04-30 19:20 52.00096 17.98291 29984 ft 469 kts 283°
2026-04-30 19:21 52.00565 17.93199 30288 ft 456 kts 294°
2026-04-30 19:21 52.02803 17.83909 30849 ft 434 kts 307°
2026-04-30 19:22 52.05589 17.75268 31380 ft 430 kts 309°
2026-04-30 19:22 52.09597 17.62166 32105 ft 435 kts 304°
2026-04-30 19:23 52.13153 17.48595 32794 ft 434 kts 303°
2026-04-30 19:24 52.15473 17.39621 33285 ft 431 kts 302°
2026-04-30 19:24 52.16632 17.35124 33511 ft 431 kts 303°
2026-04-30 19:24 52.18945 17.26130 33957 ft 430 kts 303°
2026-04-30 19:25 52.22392 17.12658 34567 ft 429 kts 302°
2026-04-30 19:26 52.24677 17.03686 34914 ft 428 kts 302°
2026-04-30 19:26 52.26938 16.94768 35219 ft 427 kts 301°
2026-04-30 19:26 52.28072 16.90289 35382 ft 427 kts 302°
2026-04-30 19:27 52.30332 16.81326 35714 ft 427 kts 301°
2026-04-30 19:27 52.32582 16.72362 36002 ft 426 kts 301°
2026-04-30 19:28 52.33706 16.67878 36142 ft 426 kts 301°
2026-04-30 19:28 52.35818 16.58870 36402 ft 427 kts 300°
2026-04-30 19:29 52.38027 16.49888 36589 ft 423 kts 302°
2026-04-30 19:29 52.39249 16.45521 36693 ft 423 kts 301°
2026-04-30 19:30 52.42589 16.32087 36993 ft 424 kts 300°
2026-04-30 19:30 52.44777 16.23174 37181 ft 424 kts 300°
2026-04-30 19:31 52.46970 16.14203 37334 ft 424 kts 300°
2026-04-30 19:31 52.50234 16.00783 37601 ft 421 kts 299°
2026-04-30 19:32 52.52396 15.91919 37720 ft 421 kts 300°
2026-04-30 19:32 52.54581 15.82998 37824 ft 421 kts 300°
2026-04-30 19:33 52.56762 15.74084 37943 ft 420 kts 300°
2026-04-30 19:33 52.58939 15.65179 38020 ft 419 kts 299°
2026-04-30 19:34 52.60026 15.60758 38130 ft 417 kts 300°
2026-04-30 19:34 52.61116 15.56336 38172 ft 417 kts 300°
2026-04-30 19:35 52.64278 15.43066 38241 ft 420 kts 295°
2026-04-30 19:35 52.66202 15.34014 38275 ft 417 kts 298°
2026-04-30 19:36 52.68371 15.25177 38306 ft 414 kts 301°
2026-04-30 19:36 52.71388 15.11792 38338 ft 416 kts 298°
2026-04-30 19:37 52.73448 15.02892 38379 ft 410 kts 298°
2026-04-30 19:37 52.75478 14.94130 38410 ft 409 kts 298°